Location: Vancouver
(49.2500°N, 123.1330°W)
Time: 01:44:40
(UTC-07:00)

Cosmos 676 Rocket - Visible Passes

Search period start: 27 April 2018 00:00
Search period end: 07 May 2018 00:00
Orbit: 754 x 784 km, 74.0° (Epoch: 26 April)

Date Brightness Start Highest point End Pass type
(mag) Time Alt. Az. Time Alt. Az. Time Alt. Az.
27 Apr 5.1 21:50:48 10° NW 21:55:43 42° WSW 22:00:34 10° S visible
28 Apr 4.4 21:13:59 10° NNW 21:19:12 67° WSW 21:24:21 10° S visible
29 Apr 6.5 22:20:48 10° WNW 22:23:58 16° W 22:27:08 10° SW visible
30 Apr 5.9 21:43:22 10° NW 21:47:39 26° W 21:51:54 10° SSW visible
01 May 5.2 21:06:20 10° NW 21:11:14 41° WSW 21:16:04 10° S visible
03 May 6.6 21:36:21 10° WNW 21:39:29 16° W 21:42:37 10° SW visible
